Other Public Products
Issued by NWS Charleston, SC

Current Version | Previous Version | Text Only | Print | Product List | Glossary On
Versions: 1 2 3 4 5 6 7 8 9 10 11 12 13 14 15 16 17 18 19 20 21 22 23 24 25 26 27 28 29 30 31 32 33 34 35 36 37 38 39 40 41 42 43 44 45 46 47 48 49 50
000 FPUS82 KCHS 291712 OPUCHS TEST...KCHS/KSAV Gateway Observations...TEST National Weather Service Charleston SC 100 PM EDT THU JUN 29 2017 NOTE: "fair" indicates few or no clouds below 12,000 feet with no significant weather and/or obstructions to visibility. SCZ050-WAZ558-NCZ071-TXZ119-213-PAZ071-DCZ001-FLZ074-172-MI076- NYZ176-178-MAZ016-IL014-TNZ027-NJZ106-GAZ044-MD014-291800- ...Gateway Observations for Charleston International... CITY SKY/WX TMP DP RH WIND PRES REMARKS Chas Airport PTSUNNY 84 67 56 E12 30.19S Seattle MOSUNNY 62 51 67 SW6 30.17S Charlotte MOSUNNY 84 64 50 VRB7 30.21F Dallas DFW PTSUNNY 85 73 67 S16 29.86F HX 91 Dallas Love PTSUNNY 82 72 71 S14 29.88F Philladelphia CLOUDY 84 60 44 SW18G25 30.11F Wash National CLOUDY 85 62 46 S7 30.11F Baltimore PTSUNNY 86 59 39 SW7 30.09F Miami PTSUNNY 83 74 74 NW6 30.09S Detroit CLOUDY 84 65 52 SW25G31 29.83F Newark PTSUNNY 82 61 48 S15G22 30.09F Laguardia PTSUNNY 82 62 50 S17 30.09F J F K PTSUNNY 75 65 70 S20 30.12F Boston Logan LGT RAIN 76 57 51 S12 30.10F Ft. Lauderdale PTSUNNY 89 75 63 E12 30.08F HX 99 Chicago O`Hare PTSUNNY 79 66 64 W16 29.82R Chicago Midway PTSUNNY 80 66 62 SW15G28 29.83R Houston Bush PTSUNNY 86 73 65 S6 29.90R HX 93 Houston Hobby CLOUDY 89 74 60 SW7 29.90S HX 98 Nashville PTSUNNY 85 69 58 S13G24 30.06F Atlanta PTSUNNY 82 70 66 S10 30.16F $$ GAZ044-118-TXZ119-213-NCZ071-DCZ001-MDZ014-506-PAZ021-071-NJZ106- NYZ176-178-MAZ106-OHZ011-021-055-MIZ076-KYZ091-ILZ014-INZ047- MNZ060-ONZ431-291800- ...Gateway Observations for Savannah International... CITY SKY/WX TMP DP RH WIND PRES REMARKS Savannah Arpt CLOUDY 84 70 62 E14 30.17S Atlanta PTSUNNY 82 70 66 S10 30.16F Charlotte MOSUNNY 84 64 50 VRB7 30.21F Dallas DFW PTSUNNY 85 73 67 S16 29.86F HX 91 Houston Bush PTSUNNY 86 73 65 S6 29.90R HX 93 Wash National CLOUDY 85 62 46 S7 30.11F Wash Dulles MOSUNNY 84 60 44 SW9 30.10F Baltimore PTSUNNY 86 59 39 SW7 30.09F Philadelphia CLOUDY 84 60 44 SW18G25 30.11F Newark PTSUNNY 82 61 48 S15G22 30.09F Laguardia PTSUNNY 82 62 50 S17 30.09F J F K PTSUNNY 75 65 70 S20 30.12F Boston LGT RAIN 76 57 51 S12 30.10F Pittsburg CLOUDY 80 63 55 VRB7G24 30.04S Akron PTSUNNY 83 62 49 SW20G28 29.99F Cleveland CLOUDY 85 64 49 SW21G28 29.94S Cincinnati PTSUNNY 83 70 64 SW17 29.99F Columbus CLOUDY 82 68 61 SW18G26 29.99F Detroit CLOUDY 84 65 52 SW25G31 29.83F Chicago O`Hare PTSUNNY 79 66 64 W16 29.82R Minneapolis CLOUDY 70 59 68 NW8 29.76F Indianapolis MOSUNNY 84 67 56 SW23G30 29.94F Toronto Canada CLOUDY 68 63 83 SE6 29.86F $$

USA.gov is the U.S. government's official web portal to all federal, state and local government web resources and services.